SPACEMOBILE-005

导读

SPACEMOBILE-005是一颗由美国发射的卫星,于2024年9月12日发射升空。该卫星属于太空移动星座系列卫星,该系列卫星一般旨在为全球提供更加便捷的移动通信服务,弥补地面网络覆盖盲区,助力偏远地区通信连接,推动全球互联网络建设,拓展卫星通信应用边界,是商业航天领域移动通信布局的重要组成部分。

基本信息
目录编号:
61046
目录名称:
SPACEMOBILE-005
国际标识:
2024-163B
轨道中心:
EARTH
卫星名称:
SPACEMOBILE-005
卫星全名:
SPACEMOBILE-005
卫星状态:
在轨 (已飞行722 天)
发射日期:
2024-09-12 UTC
国别 :
美国 (US)
星等 :
--
轨道信息
数据来源 国际轨道数据
星历时间: 2026-09-04T12:47:01+0800
12小时前
查看轨道信息
半长轴: 6882.193km
偏心率: 0.0008259
轨道倾角: 52.980°
近地点辐角 1.196°
升交点赤经 306.125°
平近点角 358.906°
近地点: 498.371km
远地点: 509.741km
周期: 94.700分钟
每日圈数: 15.205915
详细信息
使用方式:
暂无
2D轨道图
3D轨道图
轨道高度分析图
轨道倾角分析图
轨道综合分析图
查看轨道综合分析图
交会数据列表
事件ID 空间交会对象 最接近时刻(TCA) 交会距离 交会风险概率(CRP) 交会风险指数(CRI) 操作
CDM_260907-024406-104606-739821
2026-09-07T
02:44:53+0000
0.097 km
近距离
1.09721E-3 极高风险 0.96
CDM_260829-202005-370306-104621
2026-08-29T
20:20:30+0000
1.157 km
极远距离
1.375928E-5 中风险 0.58
CDM_260829-075306-104606-843822
OBJECT Y (68438)
2026-08-29T
07:53:31+0000
2.417 km
极远距离
1.786851E-6 低风险 0.4